Wilmington, DE

1:56 PM EDT on September 15, 2019 (GMT -0400)
New Castle County

Weather History for KILG - May, 2019

Change the Weather History Date:

Saturday, May 18, 2019

  Actual Average Record
Temperature  
Mean Temperature 69 °F 63 °F  
Max Temperature 76 °F 74 °F 94 °F (1962)
Min Temperature 62 °F 53 °F 40 °F (1967)
Degree Days  
Heating Degree Days 0 4  
Month to date heating degree days 69 99  
Since 1 July heating degree days 4521 4768  
Cooling Degree Days 4 2  
Month to date cooling degree days 18 25  
Year to date cooling degree days 31 37  
Growing Degree Days 18 (Base 50)    
Moisture  
Dew Point 53 °F    
Average Humidity 64    
Maximum Humidity 90    
Minimum Humidity 38    
Precipitation  
Precipitation 0.00 in 0.13 in 2.01 in (1946)
Month to date precipitation 3.74 2.22  
Year to date precipitation 18.04 15.33  
Snow  
Snow 0.00 in 0.00 in 0.00 in (1894)
Month to date snowfall 0.0 0.0  
Since 1 July snowfall 20.5 20.2  
Snow Depth 0.00 in    
Sea Level Pressure  
Sea Level Pressure 29.98 in    
Wind  
Wind Speed 9 mph (ESE)    
Max Wind Speed 17 mph    
Max Gust Speed 21 mph    
Visibility 10 miles    
Events      
T = Trace of Precipitation, MM = Missing Value Source: NWS Daily Summary

Daily Weather History Graph

Daily Weather History Graph

Search for Another Location

Airport or City:

Astronomy

May. 18, 2019 Rise Set
Actual Time 5:45 AM EDT 8:12 PM EDT
Civil Twilight 5:14 AM EDT 8:43 PM EDT
Nautical Twilight 4:36 AM EDT 9:21 PM EDT
Astronomical Twilight 3:54 AM EDT 10:04 PM EDT
Moon 8:05 PM EDT (5/18) 5:50 AM EDT (5/18)
Length of Visible Light 15h 28m
Length of Day
14h 27m
Full, 100% of the Moon is Illuminated
May 18
Full
May 18
Full
May 26
Last Quarter
Jun 3
New
Jun 10
First Quarter

Hourly Weather History & Observations

Time (EDT) Temp. Dew Point Humidity Pressure Visibility Wind Dir Wind Speed Gust Speed Precip Events Conditions
12:51 AM 68.0 °F 60.1 °F 76% 29.86 in 10.0 mi WNW 3.5 mph - N/A   Clear
1:51 AM 64.9 °F 60.1 °F 84% 29.87 in 10.0 mi WNW 5.8 mph - N/A   Clear
2:51 AM 63.0 °F 59.0 °F 87% 29.86 in 10.0 mi WNW 3.5 mph - N/A   Clear
3:51 AM 64.0 °F 59.0 °F 84% 29.88 in 10.0 mi North 5.8 mph - N/A   Clear
4:51 AM 63.0 °F 55.9 °F 78% 29.90 in 10.0 mi North 6.9 mph - N/A   Clear
5:51 AM 62.1 °F 54.0 °F 75% 29.92 in 10.0 mi North 6.9 mph - N/A   Clear
6:15 AM 63.0 °F 53.1 °F 70% 29.94 in 10.0 mi North 9.2 mph - N/A   Clear
6:51 AM 64.0 °F 52.0 °F 65% 29.96 in 10.0 mi North 9.2 mph - N/A   Mostly Cloudy
7:51 AM 64.0 °F 48.9 °F 58% 29.99 in 10.0 mi NE 9.2 mph - N/A   Clear
8:51 AM 68.0 °F 46.9 °F 47% 30.01 in 10.0 mi Variable 6.9 mph - N/A   Clear
9:51 AM 69.1 °F 45.0 °F 42% 30.03 in 10.0 mi NE 9.2 mph - N/A   Clear
10:51 AM 71.1 °F 46.9 °F 42% 30.04 in 10.0 mi East 5.8 mph - N/A   Clear
11:51 AM 71.1 °F 46.9 °F 42% 30.04 in 10.0 mi Variable 5.8 mph - 0.00 in   Partly Cloudy
12:51 PM 75.0 °F 48.0 °F 38% 30.03 in 10.0 mi Variable 3.5 mph - N/A   Clear
1:51 PM 73.0 °F 52.0 °F 48% 30.02 in 10.0 mi SSE 9.2 mph - N/A   Mostly Cloudy
2:51 PM 73.0 °F 53.1 °F 49% 30.01 in 10.0 mi SSE 13.8 mph - N/A   Mostly Cloudy
3:51 PM 75.0 °F 55.9 °F 51% 29.99 in 10.0 mi SSE 12.7 mph - N/A   Clear
4:51 PM 75.0 °F 57.9 °F 55% 29.99 in 10.0 mi South 11.5 mph - N/A   Clear
5:51 PM 71.1 °F 57.9 °F 63% 29.99 in 10.0 mi South 15.0 mph - N/A   Clear
6:51 PM 66.9 °F 55.0 °F 66% 30.00 in 10.0 mi South 13.8 mph - N/A   Clear
7:51 PM 64.0 °F 53.1 °F 67% 30.02 in 10.0 mi South 13.8 mph - N/A   Clear
8:51 PM 64.0 °F 50.0 °F 60% 30.04 in 10.0 mi SSE 11.5 mph - N/A   Mostly Cloudy
9:51 PM 63.0 °F 51.1 °F 65% 30.06 in 10.0 mi SSE 10.4 mph - N/A   Partly Cloudy
10:51 PM 62.1 °F 55.0 °F 78% 30.06 in 10.0 mi SE 6.9 mph - N/A   Clear
11:51 PM 62.1 °F 55.9 °F 80% 30.07 in 10.0 mi SE 5.8 mph - N/A   Clear